Stations météo

réclame
Mon MeteoGroup
Plymouth, Grande-Bretagne (3827): Température de l'air & dewpoint: 13.01.2020 20:00:00 - 19.01.2020 20:00:00 (GMT)Plymouth, Grande-Bretagne (3827): Vitesse du vent & gusts: 13.01.2020 20:00:00 - 19.01.2020 20:00:00 (GMT)Plymouth, Grande-Bretagne (3827): Direction du vent: 13.01.2020 20:00:00 - 19.01.2020 20:00:00 (GMT)Plymouth, Grande-Bretagne (3827): reduced air pressure: 13.01.2020 20:00:00 - 19.01.2020 20:00:00 (GMT)Plymouth, Grande-Bretagne (3827): visibility: 13.01.2020 20:00:00 - 19.01.2020 20:00:00 (GMT)Plymouth, Grande-Bretagne (3827): Quantités de précipitations: 13.01.2020 20:00:00 - 19.01.2020 20:00:00 (GMT)
Date & Time tt [°C] td [°C] ff [km/h] ff [knt] fx [km/h] fx [knt] dd ppp [hPa] vv [km] rr [mm]
19.01.2020 20:00:00 2,1 -0,1 9 5 - - ENE 1049,3 12 0,0
19.01.2020 19:00:00 4,1 0,6 8 4 - - E 1048,8 18 0,0
19.01.2020 18:00:00 3,7 0,6 4 2 - - W 1048,4 19 0,0
19.01.2020 17:00:00 5,3 -0,9 2 1 - - ESE 1047,8 30 0,0
19.01.2020 16:00:00 7,0 -0,7 0 0 - - N 1047,7 30 0,0
19.01.2020 15:00:00 9,0 0,7 4 2 - - SW 1047,0 30 0,0
19.01.2020 14:00:00 9,2 1,5 2 1 - - SW 1046,2 35 0,0
19.01.2020 13:00:00 7,2 2,4 5 3 - - W 1046,5 30 0,2
19.01.2020 12:00:00 5,7 2,5 9 5 - - W 1046,8 30 0,0
19.01.2020 11:00:00 4,6 1,9 5 3 - - W 1046,5 28 0,0
19.01.2020 10:00:00 2,9 0,9 2 1 - - NNE 1045,7 30 0,0
19.01.2020 09:00:00 1,5 0,6 8 4 - - NE 1044,9 30 0,0
19.01.2020 08:00:00 0,6 -0,6 0 0 - - N 1043,8 26 0,0
19.01.2020 07:00:00 1,5 -0,2 2 1 - - NE 1043,0 35 0,0
19.01.2020 06:00:00 1,3 -0,1 4 2 - - NNE 1042,5 30 0,0
19.01.2020 05:00:00 0,8 -0,6 2 1 - - NE 1041,5 30 0,0
19.01.2020 04:00:00 1,7 -0,4 13 7 - - NNE 1040,7 35 0,0
19.01.2020 03:00:00 0,3 -0,7 8 4 - - NNE 1040,4 23 0,0
19.01.2020 02:00:00 0,2 -0,9 5 3 - - N 1039,8 20 0,0
19.01.2020 01:00:00 1,0 -0,2 0 0 - - N 1039,5 20 0,0
19.01.2020 00:00:00 1,4 -0,9 5 3 - - NNE 1038,7 22 0,0
18.01.2020 23:00:00 2,8 0,0 11 6 - - NE 1037,6 21 0,0
18.01.2020 22:00:00 2,7 0,1 2 1 - - N 1036,7 23 0,0
18.01.2020 21:00:00 2,6 0,1 8 4 - - NNE 1035,9 26 0,0
18.01.2020 20:00:00 3,2 0,1 8 4 - - NNE 1034,9 23 0,0
18.01.2020 19:00:00 3,4 -0,3 5 3 - - NNE 1033,5 18 0,0
18.01.2020 18:00:00 5,1 0,3 13 7 - - NE 1032,4 26 0,0
18.01.2020 17:00:00 6,0 0,1 16 9 - - NE 1031,6 29 0,0
18.01.2020 16:00:00 6,6 0,1 9 5 - - NNE 1030,3 30 0,0
18.01.2020 15:00:00 7,9 -0,1 8 4 - - ENE 1029,7 30 0,0
18.01.2020 14:00:00 8,0 0,0 13 7 - - ENE 1029,4 30 0,0
18.01.2020 13:00:00 8,1 0,8 13 7 - - ENE 1029,0 30 0,0
18.01.2020 12:00:00 7,2 4,0 9 5 - - ENE 1028,7 22 0,2
18.01.2020 11:00:00 4,3 3,5 5 3 - - E 1028,7 18 0,0
18.01.2020 10:00:00 2,0 1,8 5 3 - - ENE 1028,3 16 0,0
18.01.2020 09:00:00 0,9 0,8 9 5 - - ENE 1027,5 17 0,0
18.01.2020 08:00:00 0,6 0,4 13 7 - - ENE 1026,9 12 0,0
18.01.2020 07:00:00 0,3 0,2 9 5 - - ENE 1026,8 9 0,0
18.01.2020 06:00:00 1,2 1,1 9 5 - - E 1026,4 15 0,0
18.01.2020 05:00:00 1,0 0,8 8 4 - - NE 1026,1 10 0,0
18.01.2020 04:00:00 1,2 0,8 9 5 - - ENE 1025,4 9 0,0
18.01.2020 03:00:00 2,0 1,6 5 3 - - E 1025,2 13 0,0
18.01.2020 02:00:00 2,5 1,9 9 5 - - E 1024,8 15 0,0
18.01.2020 01:00:00 2,6 1,7 4 2 - - NNW 1024,3 25 0,0
18.01.2020 00:00:00 4,0 2,4 8 4 - - WNW 1023,4 29 0,0
17.01.2020 23:00:00 5,2 4,1 18 10 - - W 1022,5 17 0,0
17.01.2020 22:00:00 4,9 3,4 21 11 - - W 1022,0 17 0,0
17.01.2020 21:00:00 5,1 3,6 15 8 - - W 1021,5 22 0,0
17.01.2020 20:00:00 5,0 3,2 18 10 - - W 1021,0 30 0,0
17.01.2020 19:00:00 5,1 3,9 21 11 - - W 1020,0 26 0,0
17.01.2020 18:00:00 4,0 2,7 22 12 57 31 W 1019,1 35 0,2
17.01.2020 17:00:00 4,9 2,7 37 20 54 29 WSW 1018,5 40 0,2
17.01.2020 16:00:00 6,2 4,0 29 16 55 30 WSW 1017,6 26 0,2
17.01.2020 15:00:00 6,7 3,1 35 19 52 28 WSW 1017,6 8 0,0
17.01.2020 14:00:00 5,5 3,3 31 17 61 33 W 1017,3 30 0,2
17.01.2020 13:00:00 7,0 4,0 28 15 - - WSW 1016,6 24 0,0
17.01.2020 12:00:00 7,4 3,6 28 15 50 27 W 1016,2 35 0,0
17.01.2020 11:00:00 7,5 5,4 21 11 - - W 1015,8 26 0,0
17.01.2020 10:00:00 5,8 4,1 31 17 - - W 1014,5 30 0,0
17.01.2020 09:00:00 5,2 4,2 35 19 52 28 W 1013,3 30 0,6
17.01.2020 08:00:00 5,5 4,3 26 14 - - W 1012,1 23 0,0
17.01.2020 07:00:00 6,1 4,7 35 19 55 30 W 1010,3 30 0,2
17.01.2020 06:00:00 7,1 6,0 35 19 54 29 WSW 1008,4 28 0,6
17.01.2020 05:00:00 7,7 6,0 37 20 52 28 WSW 1007,2 27 0,2
17.01.2020 04:00:00 8,2 6,7 31 17 54 29 SW 1007,0 26 0,2
17.01.2020 03:00:00 7,7 6,5 31 17 72 39 SW 1007,2 7 1,0
17.01.2020 02:00:00 8,8 7,5 31 17 46 25 SSW 1007,2 16 0,6
17.01.2020 01:00:00 9,4 7,6 34 18 46 25 SSW 1007,5 6 0,2
17.01.2020 00:00:00 10,1 8,6 22 12 - - SSW 1007,9 12 0,0
16.01.2020 23:00:00 10,4 9,3 35 19 46 25 S 1007,8 9 0,0
16.01.2020 22:00:00 10,3 9,0 34 18 - - S 1008,0 10 0,0
16.01.2020 21:00:00 10,2 8,7 26 14 - - S 1008,3 11 0,0
16.01.2020 20:00:00 9,9 8,7 24 13 - - SSW 1008,1 9 0,0
16.01.2020 19:00:00 10,0 8,9 26 14 48 26 SW 1007,9 11 0,0
16.01.2020 18:00:00 10,1 8,6 34 18 48 26 SW 1007,0 10 0,0
16.01.2020 17:00:00 10,6 9,3 35 19 54 29 SW 1006,2 7 0,0
16.01.2020 16:00:00 11,4 10,7 41 22 72 39 SSW 1005,3 4,6 0,0
16.01.2020 15:00:00 11,9 11,2 61 33 98 53 S 1004,4 5 0,0
16.01.2020 14:00:00 11,9 11,1 65 35 89 48 S 1003,7 6 1,6
16.01.2020 13:00:00 11,2 10,7 54 29 78 42 S 1005,2 2,2 4,0
16.01.2020 12:00:00 11,0 10,2 44 24 83 45 S 1006,3 4,8 0,8
16.01.2020 11:00:00 10,4 9,9 39 21 67 36 SSE 1007,7 5 1,4
16.01.2020 10:00:00 10,0 9,1 35 19 61 33 SSE 1008,5 4,3 1,4
16.01.2020 09:00:00 10,1 8,3 35 19 65 35 SSE 1009,7 1,4 0,2
16.01.2020 08:00:00 9,8 7,6 29 16 54 29 SSE 1010,8 18 0,0
16.01.2020 07:00:00 9,7 7,7 34 18 46 25 SSE 1012,0 16 0,0
16.01.2020 06:00:00 9,1 6,8 29 16 52 28 S 1013,0 17 0,0
16.01.2020 05:00:00 9,5 6,6 35 19 59 32 S 1014,0 19 0,0
16.01.2020 04:00:00 9,6 6,6 41 22 59 32 S 1014,8 19 0,0
16.01.2020 03:00:00 9,7 7,0 41 22 63 34 S 1015,8 16 0,0
16.01.2020 02:00:00 9,5 7,1 37 20 57 31 S 1015,8 14 0,0
16.01.2020 01:00:00 10,0 6,4 44 24 57 31 S 1016,0 19 0,0
16.01.2020 00:00:00 9,8 6,9 39 21 52 28 S 1016,4 17 0,0
15.01.2020 23:00:00 9,6 7,1 34 18 - - S 1016,2 17 0,0
15.01.2020 22:00:00 9,6 7,0 31 17 46 25 SSW 1016,1 16 0,0
15.01.2020 21:00:00 9,4 6,5 31 17 46 25 SSW 1015,8 18 0,0
15.01.2020 20:00:00 9,4 6,8 37 20 50 27 SSW 1015,8 18 0,2
15.01.2020 19:00:00 8,8 6,6 29 16 63 34 SW 1015,4 17 0,2
15.01.2020 18:00:00 9,4 5,4 35 19 55 30 SW 1014,7 22 0,0
15.01.2020 17:00:00 9,1 5,7 28 15 46 25 SW 1013,3 19 0,0
15.01.2020 16:00:00 9,1 4,7 31 17 48 26 WSW 1012,5 21 0,0
15.01.2020 15:00:00 9,9 5,1 31 17 52 28 WSW 1011,2 22 0,0
15.01.2020 14:00:00 9,6 5,0 29 16 52 28 WSW 1010,4 22 0,0
15.01.2020 13:00:00 9,8 4,5 37 20 52 28 WSW 1009,6 21 0,0
15.01.2020 12:00:00 9,7 4,9 28 15 46 25 WSW 1008,5 23 0,0
15.01.2020 11:00:00 9,1 5,3 26 14 46 25 WSW 1007,5 21 0,0
15.01.2020 10:00:00 8,3 5,2 31 17 - - WSW 1006,3 15 0,0
15.01.2020 09:00:00 8,1 5,3 29 16 - - WSW 1004,3 18 0,0
15.01.2020 08:00:00 8,0 6,1 21 11 - - WSW 1003,1 13 0,0
15.01.2020 07:00:00 7,6 5,7 22 12 - - W 1002,3 18 0,0
15.01.2020 06:00:00 7,8 6,4 18 10 - - WSW 1001,2 13 0,0
15.01.2020 05:00:00 7,4 6,6 18 10 - - WSW 1000,8 18 0,4
15.01.2020 04:00:00 7,7 6,8 24 13 - - WSW 999,9 5 0,0
15.01.2020 03:00:00 7,2 6,8 13 7 - - WSW 999,5 9 0,0
15.01.2020 02:00:00 7,2 7,0 15 8 - - WSW 999,0 15 0,2
15.01.2020 01:00:00 7,4 7,3 15 8 - - W 998,5 5 0,6
15.01.2020 00:00:00 7,6 7,6 13 7 - - WNW 997,3 28 1,0
14.01.2020 23:00:00 8,8 8,8 15 8 - - WSW 995,8 1,4 0,8
14.01.2020 22:00:00 8,9 8,8 15 8 - - WSW 995,1 9 1,0
14.01.2020 21:00:00 9,6 9,5 31 17 48 26 WSW 995,0 1,2 0,8
14.01.2020 20:00:00 10,2 10,2 39 21 52 28 SSW 994,6 5 0,2
14.01.2020 19:00:00 10,3 10,3 37 20 55 30 SSW 993,8 5 0,6
14.01.2020 18:00:00 10,6 10,5 44 24 76 41 SW 993,3 4,5 3,8
14.01.2020 17:00:00 11,6 11,4 55 30 89 48 SSW 991,4 2,0 1,0
14.01.2020 16:00:00 11,9 11,6 65 35 87 47 SSW 991,3 5 0,0
14.01.2020 15:00:00 11,9 11,6 65 35 93 50 SSW 991,1 6 0,2
14.01.2020 14:00:00 11,9 11,7 65 35 93 50 SSW 991,1 1,5 0,2
14.01.2020 13:00:00 11,9 11,7 57 31 85 46 SSW 991,0 5 0,2
14.01.2020 12:00:00 11,9 11,8 59 32 96 52 SSW 991,2 2,7 0,2
14.01.2020 11:00:00 11,1 11,0 63 34 87 47 S 992,1 3,2 1,0
14.01.2020 10:00:00 10,1 9,5 48 26 65 35 S 993,3 1,3 0,6
14.01.2020 09:00:00 9,3 8,6 37 20 63 34 S 994,7 3,7 0,8
14.01.2020 08:00:00 9,5 8,3 46 25 63 34 S 996,0 5 0,4
14.01.2020 07:00:00 10,0 7,8 35 19 54 29 SSW 996,9 10 0,0
14.01.2020 06:00:00 9,5 7,0 37 20 55 30 SW 997,1 12 0,0
14.01.2020 05:00:00 9,0 6,8 35 19 55 30 SW 997,6 13 0,0
14.01.2020 04:00:00 8,5 6,6 24 13 54 29 WSW 997,2 15 0,0
14.01.2020 03:00:00 9,0 6,6 37 20 50 27 SW 997,6 11 0,0
14.01.2020 02:00:00 8,7 5,4 41 22 55 30 SW 997,1 17 0,0
14.01.2020 01:00:00 9,0 5,8 29 16 57 31 WSW 997,4 12 0,0
14.01.2020 00:00:00 9,0 5,1 41 22 61 33 WSW 997,6 14 0,0
13.01.2020 23:00:00 8,7 6,0 34 18 57 31 SW 997,2 10 0,0
13.01.2020 22:00:00 8,7 7,5 37 20 59 32 SW 996,9 9 1,4
13.01.2020 21:00:00 9,1 7,6 41 22 59 32 SW 996,5 10 0,0
13.01.2020 20:00:00 8,3 7,1 42 23 55 30 SW 996,6 13 0,0

tt = Température de l'air
td = dewpoint
ff = Vitesse du vent
fx = gusts
dd = Direction du vent
ppp = reduced air pressure
vv = visibility
rr = Quantités de précipitations

stations d'obs. à proximité